Weather History for Great Falls, MT

Change the Weather History Date:

Tuesday, January 14, 2014

  Actual Average Record
Temperature  
Mean Temperature 27 °F 25 °F  
Max Temperature 41 °F 35 °F 57 °F (1973)
Min Temperature 13 °F 15 °F -32 °F (1909)
Degree Days  
Heating Degree Days 38 40  
Month to date heating degree days 487 565  
Since 1 July heating degree days 3641 3782  
Cooling Degree Days 0 0  
Month to date cooling degree days 0 0  
Year to date cooling degree days 0 0  
Moisture  
Dew Point 26 °F    
Average Humidity 80    
Maximum Humidity 100    
Minimum Humidity 59    
Precipitation  
Precipitation 0.03 in 0.01 in 0.51 in (1928)
Month to date precipitation 0.44 0.24  
Year to date precipitation 0.44 0.24  
Snow  
Snow 1.20 in 0.30 in 6.50 in (1928)
Month to date snowfall 9.2 4.2  
Since 1 July snowfall 32.1 27.4  
Snow Depth 4.00 in    
Sea Level Pressure  
Sea Level Pressure 30.39 in    
Wind  
Wind Speed 13 mph (SW)    
Max Wind Speed 24 mph    
Max Gust Speed 32 mph    
Visibility 7 miles    
Events Snow    
T = Trace of Precipitation, MM = Missing Value Source: NWS Daily Summary

Daily Weather History Graph

Daily Weather History Graph

Search for Another Location

Airport:

Trip Planner

Search our weather history database for the weather conditions in past years. The results will help you decide how hot, cold, wet, or windy it might be!

Date:

Astronomy

Jan. 14, 2014 Rise Set
Actual Time 8:09 AM MST 5:00 PM MST
Civil Twilight 7:34 AM MST 5:35 PM MST
Nautical Twilight 6:56 AM MST 6:13 PM MST
Astronomical Twilight 6:19 AM MST 6:50 PM MST
Moon 4:11 PM MST (1/14) 6:44 AM MST (1/14)
Length of Visible Light 10h 00m
Length of Day
8h 51m
Waxing Gibbous, 98% of the Moon is Illuminated
Jan 14
Waxing Gibbous
Jan 15
Full
Jan 23
Last Quarter
Jan 30
New
Feb 6
First Quarter

Hourly Weather History & Observations

Time (MST) Temp. Windchill Dew Point Humidity Pressure Visibility Wind Dir Wind Speed Gust Speed Precip Events Conditions
12:02 AM 28.4 °F 21.2 °F 26.6 °F 93% 30.29 in 0.8 mi WSW 6.9 mph - 0.02 in Snow Light Snow
12:11 AM 26.6 °F 21.2 °F 26.6 °F 100% 30.29 in 1.0 mi West 4.6 mph - 0.02 in Snow Light Snow
12:23 AM 26.6 °F 22.6 °F 26.6 °F 100% 30.30 in 2.0 mi WSW 3.5 mph - 0.02 in Snow Light Snow
12:32 AM 26.6 °F 20.0 °F 26.6 °F 100% 30.30 in 1.5 mi WSW 5.8 mph - 0.03 in Snow Light Snow
12:37 AM 26.6 °F 21.2 °F 26.6 °F 100% 30.30 in 2.0 mi WSW 4.6 mph - 0.03 in Snow Light Snow
12:53 AM 27.0 °F 23.0 °F 27.0 °F 100% 30.40 in 1.8 mi WSW 3.5 mph - 0.03 in Snow Light Snow
1:16 AM 26.6 °F 22.6 °F 26.6 °F 100% 30.30 in 2.0 mi SW 3.5 mph - 0.00 in Snow Light Snow
1:31 AM 26.6 °F 22.6 °F 26.6 °F 100% 30.31 in 2.0 mi SSW 3.5 mph - 0.01 in Snow Light Snow
1:53 AM 27.0 °F 19.5 °F 26.1 °F 96% 30.40 in 2.0 mi SSW 6.9 mph - 0.01 in Snow Light Snow
2:19 AM 26.6 °F 20.0 °F 26.6 °F 100% 30.32 in 6.0 mi SSW 5.8 mph - 0.00 in Snow Light Snow
2:53 AM 26.1 °F 19.4 °F 26.1 °F 100% 30.48 in 6.0 mi SW 5.8 mph - 0.00 in Snow Light Snow
3:53 AM 25.0 °F 18.1 °F 25.0 °F 100% 30.49 in 10.0 mi South 5.8 mph - 0.00 in   Overcast
4:53 AM 24.1 °F 16.0 °F 21.9 °F 91% 30.51 in 10.0 mi SSE 6.9 mph - N/A   Overcast
5:53 AM 21.0 °F 12.4 °F 19.9 °F 96% 30.51 in 10.0 mi SSE 6.9 mph - N/A   Mostly Cloudy
6:53 AM 19.0 °F 9.0 °F 16.0 °F 88% 30.51 in 10.0 mi SSE 8.1 mph - N/A   Clear
7:53 AM 16.0 °F 6.3 °F 14.0 °F 92% 30.52 in 10.0 mi South 6.9 mph - N/A   Clear
8:53 AM 19.0 °F 6.1 °F 17.1 °F 92% 30.52 in 10.0 mi SSW 12.7 mph - N/A   Clear
9:53 AM 27.0 °F 15.2 °F 23.0 °F 85% 30.50 in 10.0 mi SSW 15.0 mph - N/A   Clear
10:53 AM 28.9 °F 17.7 °F 24.1 °F 82% 30.49 in 10.0 mi SW 15.0 mph - N/A   Clear
11:53 AM 33.1 °F 23.4 °F 25.0 °F 72% 30.47 in 10.0 mi SW 13.8 mph - N/A   Clear
12:53 PM 36.0 °F 26.7 °F 27.0 °F 70% 30.44 in 10.0 mi SW 15.0 mph - N/A   Clear
1:53 PM 37.9 °F 30.5 °F 30.0 °F 73% 30.42 in 10.0 mi SW 11.5 mph - N/A   Clear
2:53 PM 41.0 °F 32.8 °F 30.9 °F 67% 30.39 in 10.0 mi WSW 16.1 mph 24.2 mph N/A   Clear
3:53 PM 39.9 °F 31.8 °F 30.9 °F 70% 30.38 in 10.0 mi SW 15.0 mph - N/A   Clear
4:53 PM 39.0 °F 29.9 °F 30.0 °F 70% 30.38 in 10.0 mi SW 17.3 mph - N/A   Overcast
5:53 PM 37.0 °F 27.4 °F 28.9 °F 73% 30.38 in 10.0 mi SW 17.3 mph - N/A   Clear
6:53 PM 37.0 °F 28.5 °F 28.9 °F 73% 30.36 in 10.0 mi SW 13.8 mph - N/A   Clear
7:53 PM 37.0 °F 27.7 °F 28.9 °F 73% 30.36 in 10.0 mi SW 16.1 mph 24.2 mph N/A   Clear
8:53 PM 37.9 °F 28.5 °F 28.9 °F 70% 30.33 in 10.0 mi SW 17.3 mph - N/A   Clear
9:53 PM 37.0 °F 27.4 °F 28.0 °F 70% 30.28 in 10.0 mi SW 17.3 mph - N/A   Clear
10:53 PM 39.9 °F 30.0 °F 26.1 °F 58% 30.24 in 10.0 mi WSW 21.9 mph 27.6 mph N/A   Clear
11:53 PM 41.0 °F 31.9 °F 25.0 °F 53% 30.20 in 10.0 mi WSW 19.6 mph 29.9 mph N/A   Clear